Flag for Gambia Weather past 2 weeks in Banjul, Gambia

Now
79 °F

Passing clouds.


Feels Like: 82 °F
Forecast: N/A
Wind: No wind

Location: Banjul / Yundum

Current Time: Aug 28, 2015 at 11:10:29 PM

Latest Report: Aug 28, 2015 at 10:00 PM


Visibility: N/A

Pressure: 29.83 "Hg

Humidity: 89%

Dew point: 75 °F

Location of BanjulLocation

Historic Weather in Banjul — Graph

°F

Banjul temperature yesterday

Maximum temperature yesterday: 90 °F (at 2:00 PM)
Minimum temperature yesterday: 77 °F (at 12:00 AM)
Average temperature yesterday: 82 °F

Past Weeks' High & Low Weather Summary

 TemperatureHumidityPressure
High90 °F (Aug 14, 2:00 PM)100% (Aug 15, 8:00 AM)29.95 "Hg (Aug 15, 8:00 AM)
Low70 °F (Aug 25, 6:00 PM)62% (Aug 26, 5:00 PM)29.77 "Hg (Aug 16, 4:00 AM)
Average80 °F88%29.86 "Hg
* Reported Aug 13 9:00 PM — Aug 28 9:00 PM, Banjul, Weather by CustomWeather, © 2015

Note: Actual official high and low records may vary slightly from our data, if they occured in-between our weather recording intervals... More about our weather records

Advertising

Banjul weather history for previous 24 hours

 ConditionsComfort  
Time TempWeatherWind HumidityBarometerVisibility
9:00 PM
Fri, Aug 28
81 °FPassing clouds.No wind84%29.83 "HgN/A
8:00 PM81 °FPassing clouds.No wind84%29.80 "HgN/A
7:00 PM82 °FPartly sunny.6 mph79%29.77 "HgN/A
6:00 PM84 °FScattered clouds.12 mph70%29.77 "HgN/A
5:00 PM84 °FScattered clouds.2 mph74%29.77 "HgN/A
4:00 PM86 °FSunny.12 mph70%29.77 "Hg10 mi
3:00 PM86 °FSunny.17 mph70%29.77 "Hg10 mi
2:00 PM86 °FSunny.12 mph70%29.83 "Hg10 mi
1:00 PM84 °FScattered clouds.17 mph74%29.83 "HgN/A
12:00 PM81 °FBroken clouds.No wind79%29.83 "HgN/A
11:00 AM77 °FBroken clouds.6 mph89%29.89 "HgN/A
10:00 AM73 °FPartly sunny.7 mph94%29.89 "HgN/A
9:00 AM72 °FPartly sunny.6 mph94%29.89 "HgN/A
8:00 AM72 °FThunderstorms. Broken clouds.17 mph100%29.92 "Hg6 mi
7:00 AM81 °FThunderstorms. Partly sunny.6 mph89%29.86 "HgN/A
6:00 AM81 °FPartly cloudy.6 mph89%29.80 "HgN/A
5:00 AM75 °FPassing clouds.6 mph94%29.83 "HgN/A
4:00 AM81 °FPassing clouds.6 mph94%29.86 "HgN/A
2:00 AM81 °FPassing clouds.7 mph89%29.89 "HgN/A
1:00 AM81 °FClear.7 mph89%29.89 "Hg10 mi
12:00 AM81 °FPassing clouds.6 mph89%29.89 "HgN/A
11:00 PM
Thu, Aug 27
81 °FPassing clouds.6 mph89%29.89 "HgN/A
Weather by CustomWeather, © 2015

See weather overviewHow to use our weather pages